[[{"header":{"parameterUnit":"m.s-1","parameterCategory":1,"la1":30.2991,"la2":30.254,"lo1":-89.0895,"lo2":-89.0444,"dy":0.0017,"dx":0.0017,"nx":28,"ny":28,"refTime":"2023-09-08T03:00:00:Z","depth":0,"parameterNumber":2,"parameterNumberName":"U-component_of_WINDS"},"data":[0,0,0,0,0,0,0,0,0,0,0,0,0,0,0,0,0,0,0,0,0,0,0,0,0,0,0,0,0,0,0,0,0,0,0,0,0,0,0,0,0,0,0,0,0,0,0,0,0,0,0,0,0,0,0,0,0,0,0.5615,0.5616,0,0.572,0.5721,0.5723,0.5765,0.5765,0.5765,0.5764,0.5876,0.5879,0.5882,0,0,0,0,0,0,0,0,0,0,0,0,0,0.5455,0.5458,0.5615,0.5616,0.5618,0.572,0.5721,0.5723,0.5765,0.5765,0.5765,0.5764,0.5875,0.5879,0.5883,0,0,0,0,0,0,0,0,0,0,0,0,0,0.5539,0.5459,0.5615,0.5651,0.5655,0.572,0.5721,0.5723,0.5765,0.5765,0.5764,0.5764,0.5874,0.5879,0.5883,0.5921,0,0,0.5898,0.59,0,0,0,0,0,0,0,0,0.5534,0.5545,0.5644,0.5649,0.5654,0.5729,0.5706,0.579,0.5765,0.5724,0.5764,0.5764,0.5828,0.5836,0.5857,0.5926,0.5931,0.5898,0.5901,0.5903,0.5905,0,0,0,0,0,0,0,0.5528,0.5541,0.5657,0.5646,0.5651,0.5663,0.5675,0.5722,0.5777,0.5727,0.5731,0.5742,0.583,0.5852,0.586,0.5932,0.5898,0.5903,0.5906,0.5907,0.6039,0.6039,0,0,0,0,0,0,0.5516,0.5536,0.5653,0.566,0.5592,0.5667,0.5679,0.5705,0.5776,0.5787,0.5742,0.5744,0.5844,0.5854,0.5864,0.5914,0.5903,0.5908,0.5911,0.6038,0.6039,0.6039,0,0,0,0,0,0,0.5512,0.5526,0.5649,0.5599,0.5615,0.567,0.5698,0.5708,0.573,0.5788,0.5798,0.5755,0.5844,0.5857,0.5906,0.5918,0.591,0.5914,0.6037,0.6038,0.6039,0.6012,0,0,0,0,0,0,0.5508,0.5525,0.5538,0.5599,0.5618,0.5688,0.5699,0.571,0.5737,0.574,0.5802,0.5812,0.5845,0.5899,0.5911,0.5925,0.5918,0.6037,0.6038,0.6039,0.6012,0.6012,0.6012,0,0,0,0,0,0.5502,0.5527,0.5539,0.5553,0.5636,0.5689,0.57,0.5736,0.5738,0.5753,0.5791,0.581,0.5914,0.5904,0.5918,0.5933,0.6036,0.6037,0.6039,0.6012,0.6012,0.6012,0,0,0,0,0,0,0.5468,0.5536,0.5549,0.5594,0.5635,0.5696,0.5716,0.5735,0.5777,0.5778,0.5823,0.5836,0.5882,0.5912,0.5899,0.5973,0.5977,0.5981,0.5952,0.5952,0.5952,0.5944,0.5922,0,0,0,0,0,0.5466,0.5502,0.5559,0.5594,0.5613,0.5661,0.5685,0.571,0.5755,0.5773,0.5814,0.5857,0.59,0.5928,0.597,0.6016,0.6031,0.6034,0.6034,0.6033,0.6037,0.6065,0.6067,0.6044,0.6044,0.6044,0,0,0.5462,0.5503,0.5523,0.5588,0.5623,0.566,0.5675,0.5714,0.5743,0.5779,0.5828,0.5859,0.5911,0.5959,0.5982,0.5986,0.6046,0.6035,0.6034,0.6038,0.6066,0.6068,0.607,0.6045,0.6045,0.6044,0,0,0.5473,0.5508,0.554,0.5575,0.5626,0.5658,0.5666,0.5723,0.5745,0.5794,0.5822,0.5858,0.5931,0.5967,0.5995,0.6021,0.6041,0.6033,0.6033,0.6059,0.6061,0.6063,0.6074,0.6077,0.6036,0.6036,0.6036,0,0.5462,0.5519,0.5555,0.5593,0.5622,0.5654,0.5689,0.5721,0.5784,0.5804,0.5806,0.5898,0.5936,0.5993,0.5999,0.602,0.6032,0.6027,0.6058,0.606,0.6062,0.6073,0.6077,0.6035,0.6035,0.6035,0.6036,0,0.5503,0.5542,0.5563,0.5622,0.5653,0.5688,0.5732,0.5759,0.5781,0.5812,0.5863,0.5909,0.5962,0.5977,0.5999,0.6038,0.6039,0.6049,0.6053,0.6063,0.6073,0.6078,0.6034,0.6034,0.6034,0.6035,0,0,0.5497,0.5576,0.5583,0.5611,0.567,0.5702,0.574,0.579,0.5813,0.5856,0.589,0.5951,0.5961,0.5992,0.6019,0.6042,0.6061,0.605,0.6052,0.6052,0.6109,0.6102,0.6106,0.6074,0.6075,0.6076,0.6105,0,0.5518,0.5586,0.562,0.5674,0.5712,0.5743,0.5777,0.5818,0.5848,0.5886,0.592,0.5963,0.5972,0.5991,0.6016,0.6054,0.6074,0.6052,0.6109,0.611,0.6096,0.6111,0.6104,0.6129,0.6109,0.611,0.611,0,0.5551,0.5593,0.565,0.5706,0.5723,0.5752,0.5802,0.5836,0.5884,0.5905,0.594,0.5966,0.6009,0.601,0.607,0.6055,0.608,0.6102,0.6104,0.6112,0.6112,0.6121,0.6137,0.6141,0.6117,0.6117,0.6116,0,0.5542,0.5613,0.5656,0.5679,0.5745,0.5765,0.5794,0.5841,0.5869,0.5913,0.5933,0.5981,0.6008,0.6045,0.6084,0.6081,0.6142,0.6145,0.6162,0.6161,0.6174,0.6173,0.6197,0.6188,0.6188,0.6188,0.6188,0,0.5563,0.5597,0.5653,0.568,0.572,0.576,0.5799,0.583,0.5872,0.5907,0.5937,0.597,0.6018,0.6057,0.6088,0.6135,0.6146,0.6166,0.6174,0.6164,0.6161,0.6182,0.6181,0.6189,0.6189,0.6189,0.6188,0,0.556,0.5599,0.5649,0.5707,0.5723,0.575,0.58,0.5829,0.5861,0.5904,0.5917,0.5968,0.6015,0.6058,0.6121,0.6141,0.619,0.6199,0.6173,0.6178,0.6192,0.6191,0.6231,0.6239,0.6223,0.6223,0.6223,0,0.5571,0.5598,0.5659,0.5684,0.5712,0.5751,0.578,0.5821,0.585,0.5907,0.5929,0.5978,0.602,0.6095,0.6138,0.6187,0.6198,0.6209,0.6206,0.6196,0.62,0.6199,0.6203,0.6209,0.6209,0.6209,0.6209,0,0.5586,0.5605,0.5644,0.5691,0.5725,0.5764,0.5805,0.5824,0.5872,0.5904,0.5952,0.5984,0.6048,0.6098,0.6151,0.6183,0.6205,0.6209,0.6216,0.6207,0.6191,0.6201,0.6174,0.6209,0.6209,0.6209,0.6209,0.6209,0.5592,0.5618,0.5665,0.5709,0.5743,0.578,0.581,0.5845,0.5886,0.5941,0.5962,0.6012,0.606,0.6134,0.6166,0.6206,0.621,0.6219,0.6222,0.6224,0.6223,0.6184,0.6216,0.6216,0.6216,0.6216,0.6216,0,0.561,0.5642,0.5682,0.5737,0.5772,0.5788,0.5834,0.5862,0.5905,0.5948,0.5988,0.6044,0.6092,0.6139,0.619,0.6214,0.6225,0.6226,0.6226,0.6233,0.6216,0.6206,0.6216,0.6216,0.6216,0.6216,0.6216,0.6216,0.5624,0.5669,0.5693,0.5756,0.5788,0.5836,0.5861,0.5896,0.593,0.5991,0.6031,0.6061,0.6106,0.616,0.6206,0.6218,0.6237,0.6235,0.625,0.6234,0.6234,0.6233,0.6224,0.6238,0.6238,0.6264,0.6264,0.6265]},{"header":{"parameterUnit":"m.s-1","parameterCategory":1,"la1":30.2991,"la2":30.254,"lo1":-89.0895,"lo2":-89.0444,"dy":0.0017,"dx":0.0017,"nx":28,"ny":28,"refTime":"2023-09-08T03:00:00:Z","depth":0,"parameterNumber":3,"parameterNumberName":"V-component_of_WINDS"},"data":[0,0,0,0,0,0,0,0,0,0,0,0,0,0,0,0,0,0,0,0,0,0,0,0,0,0,0,0,0,0,0,0,0,0,0,0,0,0,0,0,0,0,0,0,0,0,0,0,0,0,0,0,0,0,0,0,0,0,-0.3952,-0.3952,0,-0.3949,-0.3949,-0.3949,-0.3972,-0.3973,-0.3973,-0.3974,-0.3972,-0.3971,-0.3971,0,0,0,0,0,0,0,0,0,0,0,0,0,-0.3981,-0.398,-0.3952,-0.3952,-0.3952,-0.3949,-0.3949,-0.3949,-0.3972,-0.3973,-0.3974,-0.3974,-0.3972,-0.3971,-0.3971,0,0,0,0,0,0,0,0,0,0,0,0,0,-0.3972,-0.398,-0.3952,-0.3963,-0.3964,-0.3949,-0.3949,-0.3949,-0.3972,-0.3973,-0.3974,-0.3975,-0.3972,-0.3971,-0.397,-0.3945,0,0,-0.3967,-0.3967,0,0,0,0,0,0,0,0,-0.3973,-0.3971,-0.3961,-0.3962,-0.3963,-0.3962,-0.3958,-0.3948,-0.3972,-0.3969,-0.3974,-0.3975,-0.3968,-0.3967,-0.3965,-0.3945,-0.3945,-0.3967,-0.3967,-0.3966,-0.3966,0,0,0,0,0,0,0,-0.3973,-0.3971,-0.3951,-0.3961,-0.3962,-0.3969,-0.3969,-0.3956,-0.3963,-0.3969,-0.3971,-0.397,-0.3969,-0.3966,-0.3965,-0.3945,-0.3967,-0.3966,-0.3966,-0.3965,-0.3909,-0.3908,0,0,0,0,0,0,-0.3972,-0.3972,-0.3951,-0.3951,-0.397,-0.3968,-0.3968,-0.3961,-0.3963,-0.3964,-0.3969,-0.3971,-0.3967,-0.3966,-0.3965,-0.3938,-0.3966,-0.3965,-0.3965,-0.391,-0.3909,-0.3908,0,0,0,0,0,0,-0.3973,-0.397,-0.3951,-0.3962,-0.396,-0.3966,-0.3959,-0.3961,-0.3958,-0.3963,-0.3965,-0.3965,-0.3967,-0.3966,-0.3951,-0.3938,-0.3965,-0.3964,-0.3911,-0.3909,-0.3908,-0.3883,0,0,0,0,0,0,-0.3973,-0.397,-0.3959,-0.3961,-0.3959,-0.3936,-0.3958,-0.396,-0.3956,-0.3958,-0.396,-0.3961,-0.3968,-0.3952,-0.395,-0.3938,-0.3963,-0.3912,-0.391,-0.3908,-0.3885,-0.3881,-0.3877,0,0,0,0,0,-0.3974,-0.3952,-0.3959,-0.3956,-0.3946,-0.3935,-0.3934,-0.3943,-0.3955,-0.3945,-0.3949,-0.3961,-0.394,-0.395,-0.3948,-0.3935,-0.3913,-0.3911,-0.3909,-0.3887,-0.3882,-0.3878,0,0,0,0,0,0,-0.3947,-0.3952,-0.396,-0.3937,-0.3936,-0.3939,-0.3927,-0.3937,-0.3932,-0.3934,-0.3946,-0.3946,-0.393,-0.393,-0.3942,-0.3913,-0.3929,-0.3926,-0.3913,-0.3908,-0.3904,-0.3905,-0.3962,0,0,0,0,0,-0.3939,-0.3929,-0.3934,-0.3913,-0.3912,-0.392,-0.3915,-0.3922,-0.3921,-0.3921,-0.3924,-0.3923,-0.3917,-0.3912,-0.3906,-0.3885,-0.3887,-0.3875,-0.3872,-0.3869,-0.3867,-0.3859,-0.3855,-0.3901,-0.3901,-0.3901,0,0,-0.3921,-0.3922,-0.3915,-0.3908,-0.3908,-0.3899,-0.3919,-0.3907,-0.3902,-0.3919,-0.3906,-0.3908,-0.3908,-0.3891,-0.3883,-0.3891,-0.3855,-0.3866,-0.3863,-0.3863,-0.3857,-0.3852,-0.3848,-0.3899,-0.39,-0.39,0,0,-0.3885,-0.3883,-0.3868,-0.3868,-0.3868,-0.3873,-0.387,-0.3872,-0.3875,-0.3861,-0.3876,-0.3869,-0.3857,-0.3858,-0.3857,-0.3824,-0.3836,-0.3822,-0.3803,-0.3795,-0.3792,-0.3789,-0.378,-0.3776,-0.382,-0.382,-0.382,0,-0.3863,-0.3849,-0.3859,-0.3848,-0.3846,-0.3862,-0.3848,-0.3847,-0.3845,-0.3844,-0.3853,-0.3841,-0.3842,-0.3827,-0.3819,-0.3816,-0.3815,-0.3822,-0.3791,-0.3788,-0.3786,-0.3778,-0.3774,-0.3818,-0.3818,-0.3818,-0.3819,0,-0.3824,-0.3815,-0.3802,-0.3801,-0.3798,-0.3785,-0.3794,-0.379,-0.3798,-0.3803,-0.3791,-0.3793,-0.379,-0.3787,-0.3794,-0.3773,-0.3779,-0.3789,-0.3806,-0.378,-0.3773,-0.3769,-0.3816,-0.3817,-0.3817,-0.3817,0,0,-0.377,-0.3776,-0.3772,-0.3773,-0.3775,-0.3769,-0.3758,-0.3756,-0.3753,-0.3751,-0.3745,-0.3736,-0.3747,-0.3745,-0.3753,-0.3746,-0.3724,-0.3758,-0.3758,-0.3754,-0.3706,-0.3699,-0.3695,-0.3732,-0.3731,-0.373,-0.3706,0,-0.3737,-0.3719,-0.3729,-0.371,-0.3704,-0.372,-0.3712,-0.3713,-0.3718,-0.3714,-0.372,-0.3715,-0.3728,-0.3728,-0.3722,-0.3728,-0.3715,-0.373,-0.3727,-0.3727,-0.3728,-0.3691,-0.3683,-0.366,-0.3703,-0.3703,-0.3702,0,-0.3695,-0.3694,-0.3675,-0.3682,-0.368,-0.3671,-0.3672,-0.3667,-0.367,-0.3675,-0.3675,-0.3685,-0.3677,-0.3693,-0.3684,-0.3693,-0.3693,-0.3696,-0.3696,-0.3697,-0.3714,-0.3693,-0.3653,-0.365,-0.3697,-0.3698,-0.3698,0,-0.3662,-0.3655,-0.3644,-0.3644,-0.365,-0.3645,-0.3648,-0.3652,-0.3651,-0.3651,-0.3651,-0.365,-0.365,-0.3649,-0.366,-0.367,-0.3651,-0.3666,-0.3656,-0.3656,-0.3652,-0.3653,-0.3613,-0.3649,-0.3649,-0.3649,-0.3649,0,-0.3625,-0.3614,-0.3629,-0.3622,-0.3611,-0.3623,-0.3612,-0.3616,-0.362,-0.3616,-0.363,-0.3625,-0.3639,-0.3637,-0.3645,-0.3638,-0.3637,-0.3642,-0.3645,-0.3642,-0.3642,-0.3643,-0.3646,-0.3648,-0.3648,-0.3649,-0.3649,0,-0.3586,-0.3595,-0.3585,-0.3593,-0.3595,-0.3586,-0.3594,-0.3589,-0.3596,-0.3591,-0.359,-0.3601,-0.36,-0.361,-0.361,-0.3616,-0.3606,-0.361,-0.3605,-0.3607,-0.3597,-0.3599,-0.3559,-0.3555,-0.3591,-0.3591,-0.359,0,-0.3563,-0.3555,-0.3563,-0.3561,-0.3564,-0.356,-0.356,-0.3572,-0.3571,-0.3576,-0.3571,-0.3571,-0.3571,-0.3568,-0.3577,-0.3578,-0.3584,-0.357,-0.3584,-0.3583,-0.3587,-0.3588,-0.3588,-0.3567,-0.3567,-0.3566,-0.3566,0,-0.3523,-0.3529,-0.3527,-0.3528,-0.3527,-0.3528,-0.353,-0.3528,-0.3542,-0.3541,-0.354,-0.354,-0.3541,-0.3542,-0.3545,-0.3549,-0.3561,-0.3562,-0.356,-0.3558,-0.3556,-0.3559,-0.3599,-0.3563,-0.3563,-0.3563,-0.3563,-0.3564,-0.3493,-0.3488,-0.3493,-0.3492,-0.3495,-0.3498,-0.3495,-0.3502,-0.3501,-0.3503,-0.3511,-0.3509,-0.3515,-0.3521,-0.3524,-0.3524,-0.3531,-0.3527,-0.3527,-0.3526,-0.3526,-0.3555,-0.3524,-0.3524,-0.3524,-0.3524,-0.3524,0,-0.3455,-0.346,-0.3459,-0.3463,-0.3462,-0.3473,-0.3477,-0.3476,-0.3474,-0.3479,-0.348,-0.348,-0.3481,-0.3491,-0.3493,-0.3492,-0.3497,-0.3492,-0.3493,-0.3495,-0.3518,-0.352,-0.3488,-0.3488,-0.3488,-0.3488,-0.3488,-0.3488,-0.3436,-0.3429,-0.3436,-0.3431,-0.3436,-0.3435,-0.3437,-0.344,-0.3444,-0.3444,-0.3445,-0.3451,-0.3458,-0.3462,-0.3464,-0.3467,-0.3469,-0.3462,-0.3467,-0.3489,-0.3493,-0.3496,-0.3498,-0.3462,-0.3462,-0.3444,-0.3444,-0.3444]}]]